When you browse on this site, cookies collect data to enhance your experience and personalize the content and advertising you see.
Visit our Privacy Policy to learn more. By continuing to use the site, you agree to this use of cookies and data.
  • In Hungary
  • List of Countries
  • For 7 days
  • Water Temperature
  • Satellite Maps
  • Weather Map
  • News
  • Weather Widgets
  • user-avatar
    Login

    Hourly Weather Caravaca

    Today, 19 June, Wednesday

    Time Temperature Precipitation Wind Pressure Humidity
    00:00 +19°C° 0 mm 0 mps 711 mmHg 53%
    01:00 +19°C° 0 mm 0 mps 711 mmHg 52%
    02:00 +19°C° 0 mm 0 mps 710 mmHg 51%
    03:00 +19°C° 0 mm 0 mps 710 mmHg 51%
    04:00 +21°C° 0 mm 1 mps 711 mmHg 48%
    05:00 +22°C° 0 mm 1 mps 711 mmHg 46%
    06:00 +22°C° 0 mm 1 mps 711 mmHg 44%
    07:00 +24°C° 0 mm 1 mps 711 mmHg 39%
    08:00 +25°C° 0 mm 1 mps 712 mmHg 35%
    09:00 +27°C° 0 mm 1 mps 712 mmHg 30%
    10:00 +28°C° 0 mm 2 mps 712 mmHg 27%
    11:00 +30°C° 0 mm 2 mps 712 mmHg 24%
    12:00 +33°C° 0 mm 3 mps 712 mmHg 21%
    13:00 +34°C° 0 mm 4 mps 712 mmHg 19%
    14:00 +34°C° 0 mm 4 mps 711 mmHg 17%
    15:00 +35°C° 0 mm 5 mps 711 mmHg 16%
    16:00 +35°C° 0 mm 5 mps 711 mmHg 18%
    17:00 +34°C° 0 mm 5 mps 710 mmHg 20%
    18:00 +33°C° 0 mm 5 mps 710 mmHg 22%
    19:00 +30°C° 0 mm 3 mps 710 mmHg 27%
    20:00 +28°C° 0 mm 2 mps 710 mmHg 33%
    21:00 +25°C° 0 mm 1 mps 710 mmHg 38%
    22:00 +25°C° 0 mm 1 mps 710 mmHg 39%
    23:00 +24°C° 0 mm 1 mps 710 mmHg 40%

    Tomorrow, 20 June, Thursday

    Time Temperature Precipitation Wind Pressure Humidity
    00:00 +23°C° 0 mm 1 mps 710 mmHg 40%
    01:00 +23°C° 0 mm 1 mps 710 mmHg 40%
    02:00 +21°C° 0 mm 2 mps 710 mmHg 40%
    03:00 +21°C° 0 mm 2 mps 710 mmHg 40%
    04:00 +21°C° 0 mm 2 mps 710 mmHg 41%
    05:00 +21°C° 0 mm 2 mps 710 mmHg 42%
    06:00 +23°C° 0 mm 1 mps 710 mmHg 42%
    07:00 +24°C° 0 mm 2 mps 710 mmHg 39%
    08:00 +26°C° 0 mm 2 mps 710 mmHg 35%
    09:00 +28°C° 0 mm 2 mps 711 mmHg 32%
    10:00 +29°C° 0 mm 2 mps 711 mmHg 28%
    11:00 +31°C° 0 mm 2 mps 711 mmHg 25%
    12:00 +32°C° 0 mm 2 mps 711 mmHg 22%
    13:00 +34°C° 0 mm 3 mps 711 mmHg 20%
    14:00 +35°C° 0 mm 4 mps 710 mmHg 19%
    15:00 +35°C° 0 mm 5 mps 710 mmHg 17%
    16:00 +34°C° 0 mm 5 mps 710 mmHg 20%
    17:00 +33°C° 0 mm 5 mps 710 mmHg 22%
    18:00 +32°C° 0 mm 5 mps 710 mmHg 25%
    19:00 +29°C° 0 mm 4 mps 710 mmHg 31%
    20:00 +27°C° 0 mm 3 mps 710 mmHg 37%
    21:00 +25°C° 0 mm 1 mps 710 mmHg 44%
    22:00 +24°C° 0 mm 1 mps 710 mmHg 49%
    23:00 +23°C° 0 mm 1 mps 710 mmHg 55%

    Day after tomorrow, 21 June, Friday

    Time Temperature Precipitation Wind Pressure Humidity
    00:00 +22°C° 0 mm 1 mps 710 mmHg 60%
    01:00 +22°C° 0 mm 1 mps 710 mmHg 63%
    02:00 +21°C° 0 mm 1 mps 710 mmHg 65%
    03:00 +21°C° 0 mm 1 mps 709 mmHg 67%
    04:00 +21°C° 0 mm 1 mps 710 mmHg 64%
    05:00 +22°C° 0 mm 1 mps 710 mmHg 60%
    06:00 +22°C° 0 mm 1 mps 710 mmHg 57%
    07:00 +24°C° 0 mm 1 mps 710 mmHg 52%
    08:00 +25°C° 0 mm 2 mps 711 mmHg 48%
    09:00 +26°C° 0 mm 2 mps 711 mmHg 43%
    10:00 +28°C° 0 mm 2 mps 711 mmHg 40%
    11:00 +29°C° 0 mm 3 mps 711 mmHg 36%
    12:00 +30°C° 0 mm 3 mps 711 mmHg 32%
    13:00 +31°C° 0 mm 3 mps 711 mmHg 30%
    14:00 +33°C° 0 mm 4 mps 711 mmHg 29%
    15:00 +33°C° 0 mm 4 mps 710 mmHg 27%
    16:00 +33°C° 0 mm 4 mps 710 mmHg 31%
    17:00 +32°C° 0 mm 5 mps 710 mmHg 35%
    18:00 +30°C° 0 mm 5 mps 710 mmHg 40%
    19:00 +28°C° 0 mm 4 mps 710 mmHg 47%
    20:00 +26°C° 0 mm 3 mps 711 mmHg 55%
    21:00 +25°C° 0 mm 1 mps 711 mmHg 62%
    22:00 +24°C° 0 mm 1 mps 711 mmHg 66%
    23:00 +23°C° 0 mm 1 mps 711 mmHg 70%

    22 June, Saturday

    Time Temperature Precipitation Wind Pressure Humidity
    00:00 +20°C° 0 mm 0 mps 711 mmHg 74%
    01:00 +21°C° 0 mm 1 mps 711 mmHg 78%
    02:00 +21°C° 0 mm 1 mps 710 mmHg 81%
    03:00 +18°C° 0 mm 0 mps 710 mmHg 85%
    04:00 +18°C° 0 mm 0 mps 710 mmHg 83%
    05:00 +19°C° 0 mm 0 mps 711 mmHg 81%
    06:00 +19°C° 0 mm 0 mps 711 mmHg 80%
    07:00 +22°C° 0 mm 1 mps 711 mmHg 70%
    08:00 +24°C° 0 mm 1 mps 712 mmHg 61%
    09:00 +26°C° 0 mm 2 mps 712 mmHg 52%
    10:00 +27°C° 0 mm 2 mps 712 mmHg 45%
    11:00 +29°C° 0 mm 3 mps 712 mmHg 39%
    12:00 +32°C° 0 mm 4 mps 712 mmHg 33%
    13:00 +32°C° 0 mm 5 mps 712 mmHg 34%
    14:00 +32°C° 0 mm 6 mps 711 mmHg 35%
    15:00 +32°C° 0 mm 7 mps 711 mmHg 36%
    16:00 +30°C° 0 mm 6 mps 710 mmHg 39%
    17:00 +29°C° 0 mm 6 mps 710 mmHg 42%
    18:00 +27°C° 0 mm 5 mps 710 mmHg 46%
    19:00 +26°C° 0 mm 4 mps 710 mmHg 50%
    20:00 +25°C° 0 mm 3 mps 711 mmHg 55%
    21:00 +23°C° 0 mm 2 mps 711 mmHg 59%
    22:00 +22°C° 0 mm 1 mps 711 mmHg 64%
    23:00 +22°C° 0 mm 1 mps 711 mmHg 68%

    23 June, Sunday

    Time Temperature Precipitation Wind Pressure Humidity
    00:00 +21°C° 0 mm 1 mps 711 mmHg 73%
    01:00 +20°C° 0 mm 1 mps 710 mmHg 74%
    02:00 +18°C° 0 mm 0 mps 710 mmHg 75%
    03:00 +18°C° 0 mm 0 mps 710 mmHg 76%
    04:00 +18°C° 0 mm 0 mps 710 mmHg 71%
    05:00 +19°C° 0 mm 0 mps 710 mmHg 67%
    06:00 +20°C° 0 mm 0 mps 710 mmHg 62%
    07:00 +23°C° 0 mm 1 mps 711 mmHg 54%
    08:00 +25°C° 0 mm 2 mps 711 mmHg 46%
    09:00 +27°C° 0 mm 3 mps 711 mmHg 37%
    10:00 +28°C° 0 mm 3 mps 711 mmHg 35%
    11:00 +29°C° 0 mm 4 mps 711 mmHg 33%
    12:00 +32°C° 0 mm 4 mps 711 mmHg 31%
    13:00 +32°C° 0 mm 5 mps 711 mmHg 31%
    14:00 +33°C° 0 mm 5 mps 710 mmHg 31%
    15:00 +34°C° 0 mm 5 mps 710 mmHg 31%
    16:00 +33°C° 0 mm 5 mps 709 mmHg 33%
    17:00 +32°C° 0 mm 5 mps 709 mmHg 36%
    18:00 +30°C° 0 mm 5 mps 709 mmHg 38%
    19:00 +27°C° 0 mm 4 mps 709 mmHg 45%
    20:00 +25°C° 0 mm 3 mps 710 mmHg 52%
    21:00 +23°C° 0 mm 1 mps 710 mmHg 59%
    22:00 +23°C° 0 mm 1 mps 710 mmHg 61%
    23:00 +22°C° 0 mm 1 mps 710 mmHg 64%

    24 June, Monday

    Time Temperature Precipitation Wind Pressure Humidity
    00:00 +20°C° 0 mm 0 mps 710 mmHg 66%
    01:00 +19°C° 0 mm 0 mps 710 mmHg 67%
    02:00 +19°C° 0 mm 0 mps 709 mmHg 68%
    03:00 +18°C° 0 mm 0 mps 709 mmHg 68%
    04:00 +19°C° 0 mm 0 mps 710 mmHg 65%
    05:00 +20°C° 0 mm 0 mps 710 mmHg 61%
    06:00 +21°C° 0 mm 0 mps 710 mmHg 58%
    07:00 +25°C° 0 mm 1 mps 711 mmHg 52%
    08:00 +26°C° 0 mm 1 mps 711 mmHg 46%
    09:00 +28°C° 0 mm 2 mps 711 mmHg 40%
    10:00 +30°C° 0 mm 3 mps 711 mmHg 36%
    11:00 +33°C° 0 mm 4 mps 711 mmHg 31%
    12:00 +35°C° 0 mm 5 mps 711 mmHg 27%
    13:00 +36°C° 0 mm 6 mps 711 mmHg 24%
    14:00 +38°C° 0 mm 6 mps 711 mmHg 21%
    15:00 +40°C° 0 mm 7 mps 711 mmHg 18%
    16:00 +38°C° 0 mm 7 mps 710 mmHg 23%
    17:00 +35°C° 0 mm 6 mps 710 mmHg 27%
    18:00 +34°C° 0 mm 6 mps 710 mmHg 32%
    19:00 +30°C° 0 mm 4 mps 710 mmHg 40%
    20:00 +28°C° 0 mm 2 mps 711 mmHg 49%
    21:00 +23°C° 0 mm 0 mps 711 mmHg 57%
    22:00 +23°C° 0 mm 0 mps 711 mmHg 58%
    23:00 +22°C° 0 mm 0 mps 711 mmHg 59%
    Show more